| time (UTC) | temp F | wind direction | speed MPH | gust MPH | rain 1hr in | rain 24hr in | rain mn in | humidity % | barometer mb |
| 20260905170601 | 64 | 274 | 13.0 | 20.0 | 0.00 | 0.00 | 0.00 | 56 | 1023.5 |
| 20260905165100 | 64 | 283 | 11.0 | 20.0 | 0.00 | 0.00 | 0.00 | 55 | 1023.1 |
| 20260905163600 | 64 | 290 | 8.0 | 20.0 | 0.00 | 0.00 | 0.00 | 58 | 1022.9 |
| 20260905162100 | 64 | 278 | 13.0 | 22.0 | 0.00 | 0.00 | 0.00 | 57 | 1022.7 |
| 20260905160600 | 66 | 282 | 11.0 | 17.0 | 0.00 | 0.00 | 0.00 | 60 | 1022.6 |
| 20260905155100 | 64 | 295 | 11.0 | 15.0 | 0.00 | 0.00 | 0.00 | 62 | 1022.4 |
| 20260905153600 | 64 | 300 | 8.0 | 13.0 | 0.00 | 0.00 | 0.00 | 64 | 1022.3 |
| 20260905152059 | 64 | 306 | 8.0 | 15.0 | 0.00 | 0.00 | 0.00 | 66 | 1022.2 |
| 20260905150559 | 64 | 298 | 8.0 | 15.0 | 0.00 | 0.00 | 0.00 | 65 | 1022.1 |
| 20260905145058 | 64 | 261 | 13.0 | 20.0 | 0.00 | 0.00 | 0.00 | 62 | 1021.8 |
| 20260905143559 | 64 | 259 | 13.0 | 20.0 | 0.00 | 0.00 | 0.00 | 62 | 1021.8 |
| 20260905142058 | 64 | 270 | 13.0 | 24.0 | 0.00 | 0.00 | 0.00 | 63 | 1021.6 |
| 20260905140557 | 64 | 269 | 15.0 | 24.0 | 0.00 | 0.00 | 0.00 | 63 | 1021.6 |
| 20260905135057 | 66 | 271 | 13.0 | 22.0 | 0.00 | 0.00 | 0.00 | 61 | 1021.2 |
| 20260905133558 | 66 | 264 | 13.0 | 22.0 | 0.00 | 0.00 | 0.00 | 59 | 1021.1 |
| 20260905132057 | 66 | 273 | 13.0 | 22.0 | 0.00 | 0.00 | 0.00 | 60 | 1021.2 |
| 20260905130557 | 66 | 276 | 15.0 | 26.0 | 0.00 | 0.00 | 0.00 | 59 | 1021.1 |
| 20260905125057 | 64 | 273 | 13.0 | 24.0 | 0.00 | 0.00 | 0.00 | 61 | 1020.8 |
| 20260905123558 | 64 | 269 | 13.0 | 22.0 | 0.00 | 0.00 | 0.00 | 64 | 1020.8 |
| 20260905122057 | 66 | 279 | 15.0 | 22.0 | 0.00 | 0.00 | 0.00 | 61 | 1020.5 |
| 20260905120557 | 64 | 288 | 13.0 | 24.0 | 0.00 | 0.00 | 0.00 | 62 | 1020.5 |
| 20260905115056 | 64 | 300 | 13.0 | 20.0 | 0.00 | 0.00 | 0.00 | 61 | 1020.2 |
| 20260905113556 | 64 | 304 | 11.0 | 20.0 | 0.00 | 0.00 | 0.00 | 62 | 1020.0 |
| 20260905112055 | 66 | 288 | 11.0 | 20.0 | 0.00 | 0.00 | 0.00 | 61 | 1019.7 |
| 20260905110555 | 64 | 284 | 11.0 | 20.0 | 0.00 | 0.00 | 0.00 | 63 | 1019.9 |
| 20260905105055 | 64 | 259 | 15.0 | 24.0 | 0.00 | 0.00 | 0.00 | 65 | 1019.6 |
| 20260905103555 | 66 | 256 | 15.0 | 26.0 | 0.00 | 0.00 | 0.00 | 63 | 1019.4 |
| 20260905102054 | 64 | 260 | 15.0 | 22.0 | 0.00 | 0.00 | 0.00 | 68 | 1019.2 |
| 20260905101825 | 64 | 260 | 15.0 | 22.0 | 0.00 | 0.00 | 0.00 | 68 | 1019.2 |
| 20260905100324 | 62 | 253 | 15.0 | 24.0 | 0.00 | 0.00 | 0.00 | 70 | 1019.0 |
| 20260905095529 | 64 | 252 | 15.0 | 26.0 | 0.00 | 0.00 | 0.00 | 64 | 1018.8 |
| 20260905094027 | 66 | 249 | 15.0 | 29.0 | 0.00 | 0.00 | 0.00 | 67 | 1018.6 |
| 20260905092527 | 64 | 257 | 20.0 | 29.0 | 0.00 | 0.00 | 0.00 | 68 | 1018.6 |
| 20260905091026 | 64 | 251 | 15.0 | 24.0 | 0.00 | 0.00 | 0.00 | 71 | 1018.4 |
| 20260905085526 | 64 | 243 | 13.0 | 22.0 | 0.00 | 0.00 | 0.00 | 75 | 1018.3 |
| 20260905084025 | 64 | 237 | 15.0 | 26.0 | 0.00 | 0.00 | 0.00 | 73 | 1018.0 |
| 20260905082525 | 62 | 244 | 15.0 | 26.0 | 0.00 | 0.00 | 0.00 | 73 | 1017.9 |
| 20260905081025 | 62 | 243 | 15.0 | 24.0 | 0.00 | 0.00 | 0.00 | 75 | 1017.7 |
| 20260905075524 | 62 | 239 | 15.0 | 24.0 | 0.00 | 0.00 | 0.00 | 75 | 1017.6 |
| 20260905074023 | 60 | 240 | 11.0 | 17.0 | 0.00 | 0.00 | 0.00 | 76 | 1017.4 |
| 20260905072523 | 60 | 238 | 13.0 | 17.0 | 0.00 | 0.00 | 0.00 | 77 | 1017.3 |
| 20260905071023 | 59 | 239 | 13.0 | 20.0 | 0.00 | 0.00 | 0.00 | 78 | 1017.3 |
| 20260905065523 | 59 | 236 | 11.0 | 15.0 | 0.00 | 0.00 | 0.00 | 79 | 1017.2 |
| 20260905064023 | 59 | 236 | 11.0 | 15.0 | 0.00 | 0.00 | 0.00 | 79 | 1017.2 |
| 20260905062523 | 57 | 230 | 8.0 | 13.0 | 0.00 | 0.00 | 0.00 | 81 | 1017.1 |
| 20260905061023 | 55 | 227 | 8.0 | 13.0 | 0.00 | 0.00 | 0.00 | 83 | 1016.9 |
| 20260905055523 | 55 | 225 | 8.0 | 13.0 | 0.00 | 0.00 | 0.00 | 83 | 1016.7 |
| 20260905054023 | 55 | 223 | 6.0 | 13.0 | 0.00 | 0.00 | 0.00 | 85 | 1016.6 |
| 20260905052523 | 55 | 223 | 6.0 | 11.0 | 0.00 | 0.00 | 0.00 | 85 | 1016.6 |
| 20260905051023 | 55 | 223 | 8.0 | 11.0 | 0.00 | 0.00 | 0.00 | 84 | 1016.5 |
| 20260905045523 | 55 | 226 | 6.0 | 11.0 | 0.00 | 0.00 | 0.00 | 84 | 1016.4 |
| 20260905044023 | 55 | 222 | 6.0 | 11.0 | 0.00 | 0.00 | 0.00 | 84 | 1016.2 |
| 20260905042523 | 55 | 228 | 8.0 | 11.0 | 0.00 | 0.00 | 0.00 | 83 | 1016.2 |
| 20260905041022 | 55 | 233 | 6.0 | 13.0 | 0.00 | 0.00 | 0.00 | 83 | 1016.0 |
| 20260905035522 | 55 | 235 | 6.0 | 13.0 | 0.00 | 0.00 | 0.00 | 82 | 1016.0 |
| 20260905034022 | 55 | 229 | 6.0 | 11.0 | 0.00 | 0.00 | 0.00 | 82 | 1015.9 |
| 20260905032522 | 55 | 228 | 6.0 | 11.0 | 0.00 | 0.00 | 0.00 | 83 | 1015.8 |
| 20260905031022 | 55 | 225 | 6.0 | 13.0 | 0.00 | 0.00 | 0.00 | 82 | 1015.8 |
| 20260905025522 | 55 | 233 | 6.0 | 13.0 | 0.00 | 0.00 | 0.00 | 80 | 1015.8 |
| 20260905024022 | 57 | 224 | 6.0 | 11.0 | 0.00 | 0.00 | 0.00 | 80 | 1015.6 |
| 20260905022522 | 55 | 224 | 6.0 | 11.0 | 0.00 | 0.00 | 0.00 | 81 | 1015.6 |
| 20260905021022 | 55 | 223 | 6.0 | 11.0 | 0.00 | 0.00 | 0.00 | 81 | 1015.5 |
| 20260905015522 | 55 | 223 | 6.0 | 11.0 | 0.00 | 0.00 | 0.00 | 81 | 1015.4 |
| 20260905014022 | 57 | 226 | 6.0 | 11.0 | 0.00 | 0.00 | 0.00 | 80 | 1015.3 |
| 20260905012522 | 57 | 230 | 6.0 | 11.0 | 0.00 | 0.00 | 0.00 | 80 | 1015.3 |
| 20260905011022 | 57 | 227 | 6.0 | 11.0 | 0.00 | 0.00 | 0.00 | 79 | 1015.4 |
| 20260905005522 | 57 | 225 | 6.0 | 11.0 | 0.00 | 0.00 | 0.00 | 80 | 1015.4 |
| 20260905004021 | 57 | 227 | 6.0 | 11.0 | 0.00 | 0.00 | 0.00 | 80 | 1015.3 |
| 20260905002522 | 57 | 233 | 8.0 | 11.0 | 0.00 | 0.00 | 0.00 | 79 | 1015.2 |
| 20260905001021 | 57 | 234 | 8.0 | 13.0 | 0.00 | 0.00 | 0.00 | 79 | 1015.2 |
| 20260904235521 | 57 | 236 | 8.0 | 15.0 | 0.00 | 0.00 | 0.00 | 79 | 1014.9 |
| 20260904234020 | 57 | 239 | 8.0 | 13.0 | 0.00 | 0.00 | 0.00 | 80 | 1014.9 |
| 20260904232520 | 59 | 233 | 8.0 | 13.0 | 0.00 | 0.00 | 0.00 | 78 | 1014.8 |
| 20260904231019 | 59 | 235 | 8.0 | 15.0 | 0.00 | 0.00 | 0.00 | 79 | 1014.7 |
| 20260904225520 | 59 | 234 | 8.0 | 13.0 | 0.00 | 0.00 | 0.00 | 79 | 1014.7 |
| 20260904224018 | 59 | 235 | 8.0 | 13.0 | 0.00 | 0.00 | 0.00 | 80 | 1014.5 |
| 20260904222519 | 59 | 230 | 6.0 | 11.0 | 0.00 | 0.00 | 0.00 | 80 | 1014.4 |
| 20260904221018 | 59 | 233 | 6.0 | 11.0 | 0.00 | 0.00 | 0.00 | 80 | 1014.3 |
| 20260904215517 | 59 | 235 | 6.0 | 11.0 | 0.00 | 0.00 | 0.00 | 82 | 1014.2 |
| 20260904214016 | 59 | 239 | 8.0 | 11.0 | 0.00 | 0.00 | 0.00 | 83 | 1014.2 |
| 20260904212516 | 59 | 236 | 8.0 | 11.0 | 0.00 | 0.00 | 0.00 | 82 | 1014.2 |
| 20260904211015 | 59 | 244 | 6.0 | 11.0 | 0.00 | 0.00 | 0.00 | 83 | 1014.0 |
| 20260904205515 | 59 | 248 | 6.0 | 11.0 | 0.00 | 0.00 | 0.00 | 82 | 1014.0 |
| 20260904204014 | 60 | 258 | 6.0 | 13.0 | 0.00 | 0.00 | 0.00 | 80 | 1013.9 |
| 20260904202515 | 60 | 257 | 6.0 | 13.0 | 0.00 | 0.00 | 0.00 | 80 | 1013.8 |
| 20260904201014 | 60 | 258 | 6.0 | 11.0 | 0.00 | 0.00 | 0.00 | 81 | 1013.7 |
| 20260904195514 | 60 | 259 | 6.0 | 11.0 | 0.00 | 0.00 | 0.00 | 81 | 1013.5 |
| 20260904194012 | 60 | 272 | 6.0 | 13.0 | 0.00 | 0.00 | 0.00 | 81 | 1013.3 |
| 20260904192512 | 60 | 277 | 6.0 | 13.0 | 0.00 | 0.00 | 0.00 | 80 | 1013.1 |
| 20260904191012 | 60 | 280 | 8.0 | 24.0 | 0.00 | 0.00 | 0.00 | 79 | 1012.9 |
| 20260904185513 | 60 | 280 | 13.0 | 24.0 | 0.00 | 0.00 | 0.00 | 78 | 1012.8 |
| 20260904184011 | 62 | 268 | 13.0 | 22.0 | 0.00 | 0.00 | 0.00 | 76 | 1012.3 |
| 20260904182512 | 62 | 261 | 11.0 | 17.0 | 0.00 | 0.00 | 0.00 | 77 | 1012.1 |
| 20260904181010 | 62 | 265 | 8.0 | 17.0 | 0.00 | 0.00 | 0.00 | 79 | 1011.9 |
| 20260904175510 | 62 | 268 | 11.0 | 15.0 | 0.00 | 0.00 | 0.00 | 78 | 1012.0 |
| 20260904174010 | 62 | 264 | 11.0 | 20.0 | 0.00 | 0.00 | 0.00 | 81 | 1011.5 |
| 20260904172510 | 64 | 262 | 11.0 | 20.0 | 0.00 | 0.00 | 0.00 | 79 | 1011.3 |